Regional Weather Roundup
Issued by NWS Sterling, VA

Home | Current Version | Previous Version | Graphics & Text | Print | Product List | Glossary On
Versions: 1 2 3 4 5 6 7 8 9 10 11 12 13 14 15 16 17 18 19 20 21 22 23 24 25 26 27 28 29 30 31 32 33 34 35 36 37 38 39 40 41 42 43 44 45 46 47 48 49
000
ASUS41 KLWX 040310
RWRLWX

REGIONAL WEATHER ROUNDUP
NATIONAL WEATHER SERVICE BALTIMORE MD/WASHINGTON DC
1100 PM EDT FRI JUL 03 2015

Note: "FAIR" indicates few or no clouds below 12,000 feet
with no significant weather and/or obstructions to visibility.
 TC=TEMPERATURE CELSIUS

 * =Non NWS site. Station does not report precipitation (e.g. rain,
    snow, etc.), thunder, or fog.

DCZ001-MDZ009-015-VAZ040>042-051-053>054-040400-
WASHINGTON METRO

CITY           SKY/WX    TMP DP  RH WIND       PRES   REMARKS
WASHINGTON NAT LGT RAIN  74  66  76 SE5       29.95R
DULLES         CLOUDY    69  64  84 SE5       29.94R
ANDREWS AFB    CLOUDY    69  69  98 E3        29.94R
FT BELVOIR     CLOUDY    69  67  93 CALM      29.94R
QUANTICO       CLOUDY    74  66  76 S7        29.94S
COLLEGE PARK*  CLOUDY    70  70 100 CALM      29.94S
LEESBURG*      CLOUDY    73  66  78 S9        29.95S
MANASSAS*      CLOUDY    70  70 100 CALM        N/A
GAITHERSBURG*  CLOUDY    70  61  73 SE5       29.99R

$$

MDZ006>007-011-014-040400-
BALTIMORE METRO

CITY           SKY/WX    TMP DP  RH WIND       PRES   REMARKS
BWI AIRPORT    CLOUDY    72  65  78 CALM      29.94R
MD SCIENCE CTR   N/A     75  64  68 MISG      29.94S
MARTIN STATE   DRIZZLE   72  68  88 E8        29.96R
ANNAPOLIS      CLOUDY    75  66  73 SE16      29.94R
FORT MEADE*    CLOUDY    66  64  94 CALM      29.97R

$$

MDZ012-015-019>023-040400-
MARYLAND EASTERN SHORE

CITY           SKY/WX    TMP DP  RH WIND       PRES   REMARKS
OCEAN CITY     CLOUDY    73  67  81 SE9       29.96S
SALISBURY      CLOUDY    69  66  90 SE5       29.95S
BAY BRIDGE AP* LGT RAIN  73  63  68 SE7       29.95R
CAMBRIDGE*     CLOUDY    72  64  78 SE6       29.94S
EASTON*        CLOUDY    73  67  84 SE5       29.98S

$$

MDZ017>025-040400-
SOUTHERN MARYLAND

CITY           SKY/WX    TMP DP  RH WIND       PRES   REMARKS
PATUXENT RIVER CLOUDY    74  66  76 SE12G21   29.94R
ST INIGOES     CLOUDY    75  67  76 E7        29.93R
LEONARDTOWN*   CLOUDY    70  64  83 SE3       29.95S

$$

MDZ003>005-040400-
NORTH CENTRAL MARYLAND

CITY           SKY/WX    TMP DP  RH WIND       PRES   REMARKS
FREDERICK*     CLOUDY    72  64  78 CALM      29.96S
HAGERSTOWN APT CLOUDY    73  63  70 SE7       29.94R
WESTMINSTER*   CLOUDY    73  63  68 S5        29.95F

$$

MDZ501>502-040400-
WESTERN MARYLAND

CITY           SKY/WX    TMP DP  RH WIND       PRES   REMARKS
OAKLAND*       CLOUDY    59 N/A N/A SE10      29.98S FOG
CUMBERLAND*    CLOUDY    66  66 100 CALM      29.98S VSB 1

$$

VAZ025>031-040400-
SHENANDOAH VALLEY

CITY           SKY/WX    TMP DP  RH WIND       PRES   REMARKS
WINCHESTER*    DRIZZLE   70  68  94 SE3       29.94S
FRONT ROYAL*   CLOUDY    68  66  94 CALM      29.93S
LURAY*         CLOUDY    70  70 100 CALM      29.95R
NEW MARKET*    CLOUDY    66  66  99 CALM      29.93S
STAUNTON*      CLOUDY    69  66  89 CALM      29.97S FOG
WAYNESBORO*    CLOUDY    67  65  93 CALM      29.97R

$$

WVZ021-048>050-054>055-040400-
EASTERN WEST VIRGINIA PANHANDLE

CITY           SKY/WX    TMP DP  RH WIND       PRES   REMARKS
MARTINSBURG    CLOUDY    70  65  84 CALM      29.94S
PETERSBURG*    CLOUDY    65  62  90 CALM      29.95S FOG

$$

VAZ036>039-050-040400-
CENTRAL FOOTHILLS

CITY           SKY/WX    TMP DP  RH WIND       PRES   REMARKS
CHARLOTTESVILL CLOUDY    69  66  90 N5        29.94R
CULPEPER*      LGT RAIN  68  67  97 CALM      29.95R
ORANGE*        CLOUDY    70  68  94 CALM      29.96R
GORDONSVILLE*  CLOUDY    68  66  94 CALM      29.94R
WARRENTON*     LGT RAIN  70  69  97 CALM      29.94R

$$

VAZ055>057-040400-
NORTH AND CENTRAL PIEDMONT

CITY           SKY/WX    TMP DP  RH WIND       PRES   REMARKS
FREDERICKSBRG* CLOUDY    72  72 100 CALM      29.92S
STAFFORD*      CLOUDY    69  65  86 CALM      29.97S

$$

NCZ024-NYZ072-PAZ021-071-VAZ022-071-040400-
OTHER REGIONAL OBSERVATIONS

CITY           SKY/WX    TMP DP  RH WIND       PRES   REMARKS
NEW YORK CITY  CLOUDY    72  59  63 CALM      30.01R
PHILADELPHIA   CLOUDY    73  64  73 SE3       29.97S
PITTSBURGH     CLOUDY    67  65  93 CALM      29.90R FOG
ROANOKE        LGT RAIN  68  67  96 CALM      29.97R FOG
RICHMOND       RAIN      71  68  90 E7        29.91F FOG
RALEIGH        MOCLDY    74  72  93 W6        29.90R

$$

ANZ530>537-040400-
MARINE OBSERVATIONS

STATION/POSITION TIME  TEMP    WIND        PRES
                       AIR SEA DIR/SP/G
                 (UTC) (F)     (DEG/KT/KT) (MB)
THOMAS PT LIGHT  0320   73 77  130/ 11/ 12 1014.3
BALT KEY BRIDGE  0200   74     190/  4/  5 1013.6R
COVE POINT       0200   74     160/ 13/ 19 1014.0F
LEWISETTA        0200   75 80  140/ 12/ 14 1012.8F
SOLOMONS ISLAND  0200      79                N/A
PINEY POINT      0200          160/ 18/ 20   N/A

$$




USA.gov is the U.S. government's official web portal to all federal, state and local government web resources and services.